Temperature
11 11 11 11 10 10 10 10 10 10 10 10 10 10 10 10 10 9 9 10 10 9 9 9 9 8 8 8 8 8 8 8 8 8 8 8 7 7 7 7 7 7 6
11 11 11 11 10 10 10 10 10 10 10 10 10 10 9 9 9 9 9 9 9 9 9 9 9 8 8 8 8 8 8 8 8 8 7 7 7 7 7 7 6 6 6
11 11 11 11 10 10 10 10 10 10 10 10 9 9 9 9 9 9 9 9 9 9 9 9 9 9 8 8 8 8 8 8 7 7 7 7 7 7 7 6 6 6 6
11 11 11 11 10 10 10 10 10 10 9 9 9 9 9 9 9 9 9 9 9 9 9 9 9 9 8 8 8 8 7 7 7 7 7 7 6 6 6 6 5 5 5
11 11 10 10 10 10 10 10 10 9 9 9 9 9 9 9 9 9 9 9 9 9 9 9 9 9 8 8 8 8 7 7 7 6 6 6 6 6 5 5 5 5 5
11 10 10 10 10 10 10 10 9 9 9 9 9 9 9 9 9 9 9 9 9 9 9 9 9 8 8 8 8 8 7 7 6 6 6 6 6 5 5 5 5 4 4
11 10 10 10 10 10 10 9 9 9 9 9 9 9 9 9 9 9 9 9 9 9 9 8 8 8 8 8 8 7 7 7 6 6 6 5 5 5 4 4 4 4 4
11 10 10 10 10 10 10 9 9 9 9 9 8 8 9 9 9 9 9 9 9 9 9 8 8 8 8 8 8 7 7 6 6 5 5 5 5 4 4 4 3 3 3
11 11 10 10 10 10 10 10 9 9 9 9 8 9 9 10 9 9 9 9 9 9 8 8 8 8 8 8 7 7 7 6 6 5 5 4 4 3 3 3 3 3 2
11 11 11 10 10 10 10 10 9 9 9 9 9 9 9 9 9 9 9 9 9 8 8 8 8 8 8 7 7 7 6 6 6 5 4 4 3 3 3 2 2 2 2
11 11 11 10 10 10 10 10 10 9 9 9 9 9 9 9 8 8 9 8 8 8 8 8 8 8 7 7 7 6 6 6 5 5 4 4 3 3 2 2 2 1 1
12 11 11 11 10 10 10 10 10 9 9 9 9 9 9 9 8 8 8 8 8 8 8 8 8 7 7 7 6 6 6 5 5 4 4 3 3 2 2 1 1 1 1
12 12 12 11 11 11 11 10 10 10 9 9 9 9 9 8 8 8 8 8 7 7 8 8 7 7 7 6 6 6 5 5 4 4 4 3 2 2 1 1 0 0 0
13 13 12 12 11 11 11 10 10 10 9 9 9 9 9 9 8 8 8 8 7 7 7 7 7 7 6 6 6 5 5 4 4 4 3 2 2 1 1 0 -0 -0 -1
13 13 12 12 12 11 11 10 10 10 10 9 9 9 9 9 9 8 8 8 7 7 7 6 6 6 6 6 5 5 4 4 3 3 2 2 1 0 0 -0 -1 -1 -1
13 13 12 12 12 11 11 11 10 10 10 10 9 9 9 9 8 8 8 8 7 6 6 6 6 6 5 5 5 4 4 3 3 3 2 1 1 0 -0 -1 -1 -2 -2
13 13 12 12 12 11 11 11 11 10 10 10 9 9 9 9 8 8 8 7 7 7 6 6 5 5 5 4 4 4 3 3 2 2 1 1 0 -0 -1 -1 -2 -2 -3
13 13 12 12 12 11 11 11 10 10 10 10 9 9 9 9 8 8 8 7 7 7 6 5 5 5 4 4 4 3 3 2 2 1 1 0 -0 -1 -1 -2 -2 -3 -3
13 13 12 12 12 11 11 11 10 10 10 10 10 9 9 9 8 8 8 7 7 6 6 5 5 4 4 3 3 3 2 2 2 1 0 -0 -1 -1 -2 -2 -3 -3 -4
12 12 12 12 12 11 11 11 10 10 10 10 9 9 9 9 8 8 7 7 7 6 6 5 4 4 3 3 3 2 2 2 1 0 -0 -1 -1 -2 -2 -3 -3 -4 -4
12 12 11 11 11 11 11 11 10 10 10 10 9 9 9 8 8 7 7 7 6 6 5 5 4 3 3 2 2 1 1 1 0 -0 -1 -1 -2 -2 -3 -3 -4 -4 -4
11 11 11 11 11 11 11 11 10 10 10 9 9 9 8 8 8 7 7 6 6 6 5 4 4 3 2 2 2 1 0 -0 -1 -1 -1 -2 -2 -3 -3 -4 -4 -4 -5
11 11 11 11 11 11 11 10 10 10 9 9 9 9 8 8 7 7 6 6 6 5 4 4 3 3 2 1 1 1 -0 -1 -1 -2 -2 -2 -3 -3 -4 -4 -4 -5 -5
11 10 10 10 10 10 10 10 10 9 9 9 9 8 8 8 7 7 6 6 5 5 4 3 3 2 2 1 1 0 -1 -1 -2 -3 -3 -3 -3 -4 -4 -4 -5 -5 -6
10 10 10 10 10 10 10 10 9 9 9 9 8 8 8 7 7 6 6 5 5 4 3 3 2 2 1 1 0 -0 -1 -2 -2 -3 -4 -4 -4 -4 -4 -4 -5 -5 -6
10 10 10 10 10 10 10 9 9 9 8 8 8 8 7 7 6 6 6 5 4 4 3 3 2 1 1 0 -0 -1 -2 -2 -3 -4 -4 -5 -5 -6 -6 -5 -5 -6 -6
Wind_Speed
11 11 10 10 11 10 10 9 8 9 8 7 6 6 5 5 4 4 5 5 5 4 3 3 2 3 3 3 4 5 6 7 8 8 9 10 11 12 13 13 14 15 15
12 11 10 9 10 10 10 9 9 8 7 6 6 5 5 4 4 3 3 4 4 4 3 3 2 2 2 3 4 4 6 7 8 9 10 11 12 13 14 14 15 16 17
14 12 10 10 10 11 11 9 9 7 6 5 5 5 4 3 3 3 3 2 2 3 3 3 2 2 2 3 4 5 6 7 8 9 11 12 13 14 15 16 17 18 18
16 13 10 10 11 11 9 8 8 7 6 5 5 4 3 3 3 3 3 3 2 2 2 2 3 2 2 3 4 5 7 8 9 10 11 12 14 15 16 17 18 19 19
17 13 11 10 12 10 9 8 8 7 7 5 4 3 3 3 3 3 4 3 2 2 2 2 0 2 3 4 5 6 7 8 10 11 12 13 14 16 17 18 18 19 20
17 14 11 12 13 10 9 9 9 7 6 5 4 3 3 3 3 3 4 4 3 3 3 3 2 2 2 4 5 7 8 9 10 12 13 14 15 16 17 18 19 20 21
18 15 11 13 12 11 11 11 9 9 7 5 4 3 4 4 4 4 4 4 4 4 4 3 3 3 3 3 4 7 9 10 11 13 14 15 16 17 18 19 20 20 21
18 15 15 13 13 11 12 12 10 8 6 6 5 4 3 5 5 4 4 4 4 4 4 4 4 4 4 4 3 5 9 11 12 13 14 15 16 17 18 19 20 21 21
19 17 17 15 14 13 12 13 13 11 8 8 7 4 3 3 3 4 5 5 4 4 4 4 4 4 4 4 4 5 8 11 12 14 14 15 16 17 18 19 20 21 21
19 19 18 17 15 13 13 13 13 11 10 8 7 5 3 1 2 2 4 4 4 4 4 3 4 4 3 4 4 6 8 10 12 13 14 15 16 17 18 19 20 21 21
18 19 18 17 16 14 14 14 14 13 11 10 7 6 5 4 4 3 3 3 4 4 3 3 3 3 3 3 4 6 8 9 11 12 13 14 15 17 18 19 20 21 21
15 19 18 17 17 15 15 14 14 14 12 11 9 8 6 5 5 5 5 4 4 3 3 3 3 3 3 4 4 6 7 8 10 11 12 13 15 16 18 19 20 20 21
15 19 18 18 16 16 15 15 14 14 14 13 11 9 8 7 5 5 5 4 4 3 3 3 3 3 2 3 3 5 5 7 9 10 11 12 14 15 17 18 19 19 20
16 19 20 19 18 17 16 15 13 13 12 12 12 11 8 7 6 5 4 4 4 4 4 4 2 2 2 2 3 5 5 7 9 10 11 12 13 14 16 17 18 18 19
15 19 20 19 18 18 17 16 13 14 13 12 12 12 9 7 6 6 5 5 4 4 4 3 2 1 1 2 3 4 5 6 8 9 10 11 12 13 15 16 17 18 19
18 19 20 19 19 18 17 16 13 14 14 12 10 11 10 7 6 6 5 5 5 5 4 2 2 1 0 1 3 4 5 6 6 8 9 10 12 13 14 15 16 17 18
19 19 19 19 19 18 17 16 15 15 15 13 12 12 11 10 7 6 6 5 5 5 6 4 1 1 1 2 3 4 5 5 5 7 9 10 11 12 13 14 15 16 17
19 19 19 18 18 18 18 17 17 16 16 15 14 12 12 9 9 7 6 6 5 5 5 5 2 1 2 2 3 4 4 5 5 6 9 10 11 12 13 13 14 15 16
18 18 18 18 18 18 18 17 17 16 15 15 14 13 12 11 10 8 7 6 5 4 4 3 2 1 1 2 3 3 4 5 5 6 8 9 10 11 12 12 13 15 16
18 18 18 18 18 17 17 16 16 15 14 13 12 12 12 12 11 10 8 7 6 5 3 3 2 1 1 2 3 3 4 4 5 5 7 8 9 9 9 11 12 14 15
17 17 16 17 17 15 15 16 15 15 14 13 11 11 10 10 10 8 7 7 7 5 4 3 2 1 1 1 2 2 4 5 5 4 6 6 7 7 7 8 10 14 16
16 16 16 16 17 13 16 19 16 14 13 13 12 10 9 10 10 10 9 8 7 6 6 4 3 2 2 1 1 2 3 4 3 3 6 6 6 6 7 7 11 14 15
15 15 16 16 16 16 19 20 18 14 13 12 12 11 8 8 10 9 9 9 7 5 4 4 4 3 2 1 1 1 2 4 4 5 6 5 6 7 7 8 11 13 15
14 14 14 15 14 15 20 21 20 14 11 11 11 12 11 11 10 11 9 8 6 4 3 2 2 2 1 1 1 1 2 3 4 3 4 4 7 8 8 8 8 12 14
13 13 13 14 14 14 20 22 20 12 10 10 10 11 12 11 14 15 11 9 8 5 6 7 6 6 6 5 3 2 2 2 3 3 3 4 6 9 8 6 7 11 14
12 11 11 12 13 14 19 22 21 11 11 10 9 9 12 13 16 16 11 10 9 7 7 7 7 6 6 5 4 2 1 2 2 2 3 4 5 6 6 5 8 10 11
Wind_Direction
166 165 163 161 162 160 160 160 159 155 153 151 150 149 148 146 141 129 118 88 67 66 70 79 79 69 52 36 26 16 8 2 357 353 349 346 343 341 338 336 334 332 330
170 169 165 164 165 165 164 166 163 160 157 158 156 156 156 154 154 153 140 125 91 67 50 42 44 42 29 10 1 356 351 346 343 340 338 337 335 333 332 330 327 325 323
173 172 169 169 169 168 168 168 163 166 162 164 167 163 165 169 174 174 168 171 150 115 73 38 34 20 1 349 341 339 338 335 333 333 333 332 331 329 328 326 325 323 323
177 175 174 174 171 171 172 170 170 172 172 176 173 171 181 182 196 190 188 190 188 180 132 74 27 4 341 330 326 326 326 328 328 329 328 328 328 327 325 324 324 323 322
181 180 179 176 174 175 177 175 179 180 178 178 180 184 197 203 199 200 201 195 193 202 210 141 21 343 333 324 320 319 320 321 321 322 323 323 323 322 321 321 321 321 320
185 184 182 181 179 179 180 181 180 183 185 179 179 196 205 206 209 208 207 202 202 212 232 242 252 250 302 317 319 319 317 317 318 319 320 321 321 321 321 321 320 320 319
187 187 185 185 185 187 187 186 182 181 184 180 187 199 204 209 215 208 212 214 209 218 234 244 256 268 269 278 309 316 318 318 317 317 317 319 320 320 319 320 320 320 320
190 190 190 189 189 190 190 188 185 187 182 189 197 199 207 197 204 215 214 219 226 221 230 239 248 257 274 280 300 319 318 315 316 316 317 318 319 319 319 321 320 320 320
193 193 194 193 192 193 193 192 191 193 189 191 203 208 213 214 186 190 209 216 222 231 232 233 242 255 270 280 292 305 316 316 315 315 316 318 319 319 320 321 321 322 322
195 196 196 197 195 196 196 196 197 198 195 192 197 221 240 244 223 197 191 204 217 231 233 228 239 246 262 274 288 315 318 315 315 315 317 319 321 321 322 323 324 324 324
196 197 198 198 198 198 199 197 196 199 199 200 196 195 207 219 237 241 232 212 212 212 226 239 240 242 252 269 287 313 314 315 316 317 318 320 322 323 323 324 325 325 324
195 198 199 199 199 199 199 197 196 199 201 203 202 200 199 203 211 220 239 248 249 222 216 228 239 240 252 271 284 312 310 314 316 318 320 321 323 323 323 324 325 325 325
195 197 196 200 200 200 197 196 196 199 202 203 204 206 209 218 213 218 235 249 255 246 219 217 225 240 256 274 289 308 304 315 318 320 320 322 322 322 323 324 325 326 327
196 195 196 198 199 197 195 195 197 199 201 203 207 207 209 213 211 213 220 232 251 248 229 221 203 225 256 275 317 308 307 317 320 321 321 323 322 323 324 325 326 327 326
194 193 194 196 198 196 194 193 197 198 199 203 206 207 208 208 208 212 216 220 235 259 259 221 208 195 265 291 322 307 307 321 321 323 324 325 326 326 326 326 327 327 326
192 192 193 194 195 195 194 194 197 198 198 201 202 202 204 204 203 203 206 214 225 239 257 248 227 220 275 308 323 312 313 316 320 328 328 327 328 328 328 329 329 328 330
193 193 192 192 192 194 194 195 197 195 198 199 197 201 202 201 198 197 197 204 214 222 244 248 233 225 258 297 315 317 319 319 324 331 328 328 329 330 331 330 330 331 333
194 192 190 190 191 193 194 195 197 196 197 199 197 198 201 196 198 197 194 200 207 210 227 244 235 230 267 296 312 317 323 323 323 330 328 328 330 329 331 331 332 333 334
193 191 189 190 190 191 192 195 196 196 198 198 196 196 197 194 198 196 193 197 199 198 211 227 233 244 281 314 313 315 318 327 325 325 324 325 326 327 329 332 334 334 334
191 190 190 190 189 189 190 191 193 194 194 195 194 195 194 194 196 193 192 193 185 181 184 199 215 231 293 327 315 318 317 326 322 323 326 325 325 326 330 332 334 335 334
191 188 188 188 188 188 189 187 188 189 189 187 188 190 189 187 188 183 178 180 176 173 172 184 195 205 244 319 317 320 315 324 321 330 326 322 321 323 328 330 334 335 334
189 187 187 187 188 189 181 179 180 183 184 183 181 179 175 174 171 165 161 162 165 170 176 178 189 209 233 266 322 323 326 328 313 339 325 317 321 321 329 329 334 334 334
186 186 187 186 188 186 174 175 174 177 179 180 178 172 166 167 166 163 155 147 145 142 157 169 179 198 212 212 232 303 320 318 307 326 326 311 322 321 327 321 325 330 333
185 185 185 186 185 181 171 172 168 175 175 176 176 172 167 165 165 159 152 147 143 138 141 144 153 157 142 127 138 330 323 321 313 322 341 308 321 323 321 312 323 330 330
183 183 184 183 182 177 169 168 164 172 169 167 167 167 165 163 159 154 150 144 136 122 108 107 103 104 103 98 88 73 24 347 327 325 352 321 318 324 314 306 320 324 325
179 176 178 181 179 176 169 166 165 168 164 160 158 160 163 160 158 157 157 153 150 146 137 123 114 109 105 100 84 65 35 339 329 308 351 331 319 333 316 308 320 323 326
Height
1515 1518 1520 1523 1526 1528 1530 1532 1534 1536 1537 1538 1539 1540 1541 1542 1542 1542 1542 1542 1542 1542 1541 1541 1541 1540 1539 1538 1537 1536 1534 1533 1531 1529 1527 1525 1523 1521 1518 1516 1513 1511 1508
1513 1516 1518 1521 1524 1526 1529 1531 1533 1535 1537 1538 1539 1540 1541 1541 1542 1542 1542 1542 1542 1541 1541 1541 1540 1540 1539 1538 1537 1535 1534 1532 1530 1528 1526 1524 1522 1519 1517 1514 1511 1508 1506
1511 1514 1517 1519 1522 1525 1527 1530 1532 1534 1536 1537 1538 1539 1540 1540 1541 1541 1541 1541 1541 1541 1540 1540 1539 1539 1538 1537 1536 1534 1532 1531 1529 1527 1524 1522 1520 1517 1514 1512 1509 1506 1503
1509 1512 1515 1517 1520 1523 1525 1528 1530 1532 1534 1536 1537 1538 1539 1539 1540 1540 1540 1540 1540 1540 1539 1539 1538 1538 1537 1535 1534 1532 1531 1529 1527 1525 1522 1520 1517 1514 1512 1509 1506 1503 1500
1506 1509 1512 1515 1518 1521 1523 1526 1528 1531 1533 1535 1536 1537 1537 1538 1538 1538 1539 1539 1539 1539 1538 1538 1537 1536 1535 1534 1532 1531 1529 1527 1525 1522 1520 1517 1514 1512 1509 1506 1502 1499 1496
1502 1506 1509 1512 1515 1518 1521 1523 1526 1529 1531 1533 1534 1535 1536 1536 1536 1537 1537 1537 1537 1537 1537 1536 1535 1534 1533 1532 1530 1528 1527 1524 1522 1520 1517 1514 1511 1508 1505 1502 1499 1495 1492
1499 1502 1506 1509 1512 1515 1518 1521 1524 1526 1528 1530 1533 1534 1534 1534 1535 1535 1535 1535 1535 1535 1535 1534 1533 1532 1531 1529 1528 1526 1524 1522 1519 1517 1514 1511 1508 1505 1502 1498 1495 1491 1488
1494 1498 1502 1506 1509 1512 1515 1518 1520 1523 1525 1528 1530 1533 1534 1535 1533 1533 1533 1533 1533 1533 1532 1531 1531 1530 1528 1527 1525 1523 1521 1519 1516 1513 1511 1507 1504 1501 1498 1494 1491 1487 1484
1490 1494 1498 1502 1505 1508 1511 1514 1517 1520 1522 1525 1527 1530 1531 1531 1532 1531 1530 1530 1531 1530 1530 1529 1528 1527 1525 1524 1522 1520 1517 1515 1513 1510 1507 1504 1500 1497 1494 1490 1487 1483 1479
1485 1489 1494 1498 1501 1504 1508 1511 1514 1517 1519 1521 1524 1525 1528 1528 1529 1530 1529 1528 1528 1528 1527 1526 1525 1524 1522 1521 1519 1516 1514 1511 1509 1506 1503 1500 1497 1493 1490 1486 1483 1479 1475
1480 1484 1489 1493 1497 1500 1504 1507 1510 1513 1516 1518 1520 1522 1523 1524 1526 1527 1527 1527 1526 1525 1524 1523 1522 1520 1519 1517 1515 1513 1510 1508 1505 1502 1498 1495 1492 1489 1485 1482 1478 1474 1470
1474 1479 1483 1488 1492 1495 1499 1502 1506 1509 1512 1514 1516 1518 1520 1521 1522 1523 1524 1524 1524 1522 1521 1520 1519 1517 1515 1514 1511 1509 1507 1504 1501 1498 1494 1491 1488 1484 1480 1477 1473 1469 1465
1467 1471 1477 1482 1486 1490 1494 1498 1501 1504 1507 1510 1512 1514 1516 1518 1519 1520 1521 1521 1521 1519 1518 1516 1515 1514 1512 1510 1508 1505 1503 1500 1497 1494 1490 1487 1483 1480 1476 1472 1468 1465 1461
1461 1466 1471 1476 1481 1485 1489 1493 1496 1500 1503 1505 1508 1510 1512 1514 1515 1516 1517 1518 1517 1517 1515 1513 1512 1510 1508 1506 1504 1501 1499 1496 1493 1490 1486 1483 1479 1475 1471 1468 1464 1460 1456
1455 1460 1465 1470 1475 1480 1483 1487 1491 1494 1498 1501 1503 1506 1507 1509 1511 1512 1513 1513 1515 1513 1513 1510 1508 1506 1505 1502 1500 1497 1495 1492 1489 1486 1482 1479 1475 1471 1467 1464 1460 1456 1452
1449 1454 1459 1464 1469 1474 1478 1482 1485 1489 1492 1495 1498 1500 1502 1504 1506 1507 1508 1509 1509 1509 1509 1507 1505 1503 1501 1499 1497 1494 1491 1488 1485 1482 1478 1475 1471 1467 1464 1460 1456 1452 1449
1442 1447 1452 1458 1462 1467 1471 1476 1479 1483 1486 1490 1492 1495 1497 1499 1501 1502 1503 1504 1504 1505 1504 1503 1501 1499 1498 1496 1493 1491 1488 1485 1481 1478 1474 1471 1467 1463 1460 1456 1452 1449 1445
1436 1441 1446 1451 1456 1461 1465 1469 1473 1477 1480 1484 1487 1489 1492 1494 1496 1497 1498 1499 1499 1500 1500 1499 1497 1495 1494 1492 1490 1487 1484 1481 1478 1474 1471 1467 1464 1460 1456 1452 1449 1445 1441
1429 1434 1439 1444 1449 1454 1459 1463 1467 1471 1475 1478 1481 1484 1486 1489 1490 1492 1493 1494 1495 1495 1495 1495 1493 1492 1490 1489 1487 1484 1481 1478 1475 1471 1468 1464 1460 1457 1453 1449 1445 1442 1438
1422 1427 1432 1438 1443 1448 1452 1457 1461 1465 1469 1472 1475 1478 1481 1483 1485 1487 1488 1489 1490 1491 1491 1490 1490 1488 1487 1485 1483 1481 1478 1475 1472 1469 1465 1461 1458 1454 1450 1446 1442 1438 1435
1415 1421 1426 1431 1437 1441 1446 1450 1455 1459 1463 1467 1470 1473 1476 1478 1481 1483 1484 1485 1486 1486 1486 1486 1486 1485 1483 1482 1480 1477 1475 1472 1469 1466 1462 1458 1455 1451 1447 1443 1439 1436 1432
1409 1415 1420 1425 1430 1435 1440 1445 1450 1454 1458 1461 1465 1468 1471 1474 1476 1478 1480 1481 1482 1483 1482 1483 1482 1481 1480 1479 1477 1475 1472 1469 1466 1464 1460 1456 1453 1449 1445 1441 1437 1433 1429
1404 1409 1414 1419 1424 1429 1435 1440 1445 1449 1453 1456 1460 1463 1466 1469 1472 1474 1475 1477 1478 1479 1479 1479 1479 1478 1477 1475 1474 1472 1470 1467 1464 1461 1457 1453 1450 1447 1443 1439 1435 1430 1426
1398 1403 1408 1414 1419 1424 1429 1435 1440 1445 1448 1452 1455 1459 1462 1464 1467 1469 1471 1473 1474 1475 1475 1475 1475 1475 1474 1473 1471 1470 1468 1465 1462 1459 1456 1452 1448 1444 1440 1436 1432 1428 1424
1393 1398 1403 1408 1413 1418 1424 1430 1435 1439 1443 1447 1451 1454 1457 1460 1463 1465 1467 1469 1470 1471 1472 1472 1472 1471 1471 1470 1469 1468 1465 1463 1460 1458 1454 1451 1446 1442 1437 1434 1430 1426 1422
1388 1393 1399 1404 1409 1414 1419 1424 1430 1434 1438 1442 1446 1450 1453 1456 1459 1461 1463 1465 1466 1467 1468 1468 1469 1468 1468 1467 1466 1465 1463 1461 1458 1455 1453 1449 1445 1441 1435 1432 1428 1424 1420